Regional Weather Roundup
Issued by NWS

Home | Current Version | Previous Version | Text Only | Print | Product List | Glossary Off
Versions: 1 2 3 4 5 6 7 8 9 10 11 12 13 14 15 16 17 18 19 20 21 22 23 24 25 26 27 28 29 30 31 32 33 34 35 36 37 38 39 40 41 42 43 44 45 46 47 48 49 50

000
ASUS43 KLOT 202310
RWRIL

ILLINOIS REGIONAL WEATHER ROUNDUP
NATIONAL WEATHER SERVICE CHICAGO/ROMEOVILLE IL
600 PM CDT SUN APR 20 2014

NOTE: "FAIR" INDICATES FEW OR NO CLOUDS BELOW 12,000 FEET WITH NO
SIGNIFICANT WEATHER AND/OR OBSTRUCTIONS TO VISIBILITY.

* THESE STATIONS ARE NOT UNDER NWS QUALITY CONTROL. THEY ALSO MAY NOT
  REPORT WEATHER SUCH AS PRECIPITATION OR FOG.

ILZ001-002-007-009-015-016-024-210000-
NORTHWEST ILLINOIS

CITY           SKY/WX    TMP DP  RH WIND       PRES   REMARKS
MOLINE         MOSUNNY   80  44  27 SW12      30.00S
STERLING*      MOSUNNY   81  43  26 S6        30.02S
SAVANNA*       MOSUNNY   80  42  25 S9        30.01S
$$

ILZ003-004-008-010-011-017-018-210000-
NORTH CENTRAL ILLINOIS

CITY           SKY/WX    TMP DP  RH WIND       PRES   REMARKS
ROCKFORD       PTSUNNY   79  38  22 SW13      30.04F
FREEPORT*      MOSUNNY   79  43  27 SW7       30.05S
ROCHELLE*      MOSUNNY   78  38  24 S13       30.05S
DE KALB*       MOSUNNY   76  40  27 SW12      30.06F
PERU*          SUNNY     78  41  25 S5        30.05S
$$

ILZ005-006-012>014-019>023-210000-
NORTHEAST ILLINOIS

CITY           SKY/WX    TMP DP  RH WIND       PRES   REMARKS
CHICAGO-OHARE  PTSUNNY   77  39  25 S12       30.05F
CHICAGO-MIDWAY PTSUNNY   78  38  23 SW14      30.07S
AURORA         SUNNY     77  40  26 S10       30.06F
LANSING*       MOSUNNY   75  38  26 S8        30.08F
JOLIET*        SUNNY     76  37  23 S6        30.07F
WAUKEGAN       PTSUNNY   63  37  38 SE14      30.06F
DUPAGE AIRPORT SUNNY     77  41  27 S9        30.05F
KANKAKEE*      SUNNY     76  41  28 S8        30.08F
WHEELING       MOSUNNY   78  40  25 S10       30.07S
MORRIS*        SUNNY     80  26  13 S7        30.05F
ROMEOVILLE*    SUNNY     76  36  23 SW8       30.07S
NORTHERLY ISL    N/A     58  41  53 SE1         N/A
$$

LMZ740>746-210000-
SOUTHERN LAKE MICHIGAN

STATION/POSITION SKY/WX   TEMP    WIND        PRES    VSBY  WAVE
                          AIR SEA DIR/SP/G                  HT/PER
                          (F)     (DEG/KT/KT) (MB)    (MI)  (FT/S)
WAUKEGAN HARBOR            51     190/  7/  9 1019.3F
HARRISON CRIB              62     120/ 19/ 21   N/A
BURNHAM HARBOR             58     130/  2/  7   N/A
CALUMET HARBOR             76     180/  8/ 13 1019.0F
MICHIGAN CITY              58      40/ 11/ 13   N/A
$$

ILZ025>027-034>036-040-047-049-050-058-095>099-210000-
WEST-CENTRAL ILLINOIS

CITY           SKY/WX    TMP DP  RH WIND       PRES   REMARKS
QUINCY         MOSUNNY   79  46  31 S10       30.03F
GALESBURG*     MOSUNNY   79  49  35 S9G24     30.03S
MACOMB*        MOSUNNY   81  44  27 S13       30.05S HX  80
JACKSONVILLE*  MOSUNNY   79  39  24 S13       30.06F
PITTSFIELD*    MOSUNNY   79  40  24 S7        30.05F
$$

ILZ028>032-037-038-041>044-048-051>054-059>061-210000-
CENTRAL ILLINOIS

CITY           SKY/WX    TMP DP  RH WIND       PRES   REMARKS
PONTIAC        SUNNY     81  39  22 SW8       30.06S
BLOOMINGTON    MOSUNNY   76  40  27 S13       30.09S
DECATUR        MOSUNNY   75  41  29 S13       30.09S
PEORIA         MOSUNNY   79  41  25 SW13      30.04S
LACON*         MOSUNNY   78  43  28 SW7       30.03S
LINCOLN*       SUNNY     79  38  23 S10G16    30.05S
SPRINGFIELD    MOSUNNY   79  40  24 S13       30.07S
TAYLORVILLE    MOSUNNY   75  43  31 S10       30.09S
$$

ILZ033-039-045-046-055>057-062-063-210000-
EAST-CENTRAL ILLINOIS

CITY           SKY/WX    TMP DP  RH WIND       PRES   REMARKS
CHAMPAIGN      SUNNY     77  39  25 S12       30.09F
RANTOUL*       SUNNY     79  35  20 CALM      30.10S
MATTOON        MOSUNNY   73  44  35 S9        30.10F
PARIS*         MOSUNNY   73  42  31 S6        30.12F
$$

ILZ079-100>102-210000-
SOUTHWEST ILLINOIS

CITY           SKY/WX    TMP DP  RH WIND       PRES   REMARKS
ALTON          MOSUNNY   77  39  25 S12       30.06F
BELLEVILLE     SUNNY     77  45  32 S9        30.06F
CAHOKIA*       MOSUNNY   78  44  29 SE12      30.05F
SPARTA*        MOSUNNY   73  43  33 S10       30.09S
$$

ILZ064>066-069>071-074>076-080>082-084>086-088>090-092>094-210000-
SOUTH-CENTRAL ILLINOIS

CITY           SKY/WX    TMP DP  RH WIND       PRES   REMARKS
CARBONDALE     PTSUNNY   74  46  36 S8        30.09S
CAIRO*         MOSUNNY   80  41  25 S6        30.10F
MARION         PTSUNNY   77  43  29 S9        30.11F
MT. VERNON     MOSUNNY   77  45  31 S6        30.11S
CENTRALIA*       N/A     76  42  30 CALM      30.10S
SALEM*         SUNNY     76  47  36 S10       30.10F
METROPOLIS*    MOSUNNY   77  36  22 S7        30.10F
$$

ILZ067-068-072-073-078-083-087-091-210000-
SOUTHEAST ILLINOIS

CITY           SKY/WX    TMP DP  RH WIND       PRES   REMARKS
FAIRFIELD*     MOSUNNY   75  43  31 CALM      30.10F
HARRISBURG*    MOSUNNY   77  40  27 CALM      30.11S
ROBINSON*      SUNNY     76  43  31 S5        30.12F
CARMI*         MOSUNNY   77  46  32 E6        30.10F
$$

ABBREVIATIONS USED IN REMARKS
   TC - TEMPERATURE IN CELSIUS
  WCI - WIND CHILL INDEX
   HX - HEAT INDEX
  VSB - VISIBILITY
$$




USA.gov is the U.S. government's official web portal to all federal, state and local government web resources and services.